Regional Weather Roundup
Issued by NWS Albany, NY

Home | Current Version | Previous Version | Text Only | Print | Product List | Glossary On
Versions: 1 2 3 4 5 6 7 8 9 10 11 12 13 14 15 16 17 18 19 20 21 22 23 24 25 26 27 28 29 30 31 32 33 34 35 36 37 38 39 40 41 42 43 44 45 46 47 48 49 50
000
ASUS41 KALY 051310
RWRALY

NEW YORK STATE HOURLY WEATHER ROUNDUP
NATIONAL WEATHER SERVICE ALBANY NY
800 AM EST THU MAR 05 2015

NOTE: "FAIR" INDICATES FEW OR NO CLOUDS BELOW 12,000 FEET WITH NO
SIGNIFICANT WEATHER AND/OR NO OBSTRUCTIONS TO VISIBILITY.

NYZ032-033-038>043-046>054-057>066-NYZ062>081-051400-
EAST


CITY           SKY/WX    TMP DP  RH WIND       PRES   REMARKS
ALBANY         CLOUDY    23   4  44 NW12G21   30.12R WCI  12
GLENS FALLS    CLOUDY    24   1  36 N8        30.10R WCI  15
POUGHKEEPSIE   CLOUDY    28  14  55 N12G22    30.08R WCI  18
NEWBURGH       LGT SNOW  28  19  69 NE12      30.08R WCI  18
MONTGOMERY     FLURRIES  29  16  58 NW12      30.06R WCI  19
WHITE PLAINS   SNOW      26  23  88 N13       30.05R VSB 1/2 WCI  15
ISLIP          SNOW      30  28  92 N14       30.04R VSB 1/2 WCI  19
NEW YORK CITY  SNOW      32  30  92 N7        30.06R VSB 1/4 WCI  26
CENTRAL PARK   SNOW      31  30  96 VRB3      30.08R VSB 1/4
$$

NYZ005>009-017-018-044>046-055-056-051400-
CENTRAL


CITY           SKY/WX    TMP DP  RH WIND       PRES   REMARKS
FULTON         CLOUDY    13   1  59 NW12      30.22R WCI  -1
SYRACUSE       CLOUDY    11   5  77 NW14      30.22R WCI  -5
ROME           CLOUDY    13   3  64 NW17      30.19R WCI  -4
ELMIRA         CLOUDY    15   4  61 MISG      30.19R
BINGHAMTON     CLOUDY    11  -1  58 NW14G21   30.08R WCI  -5
MONTICELLO     CLOUDY    18   9  68 NW14G20   30.04R WCI   4
$$

NYZ026>034-041>043-051400-
NORTH


CITY           SKY/WX    TMP DP  RH WIND       PRES   REMARKS
WATERTOWN      CLOUDY    13   2  61 NW8       30.24R WCI   2
FORT DRUM      NOT AVBL
MASSENA        PTSUNNY    8  -7  50 NW9       30.25R WCI  -5
SARANAC LAKE   CLOUDY     8   1  73 NW8       30.03R HAZE    WCI  -4
PLATTSBURGH    CLOUDY    14  -3  47 NW10G17   30.16R WCI   1
$$

NYZ001>004-010>016-019>021-051400-
WEST


CITY           SKY/WX    TMP DP  RH WIND       PRES   REMARKS
NIAGARA FALLS  CLOUDY     8   0  69 NW12      30.27R WCI  -7
BUFFALO        MIX PCPN   9  -1  64 NW12      30.26R WCI  -6
DUNKIRK        CLOUDY     8  -2  63 NW8       30.28S WCI  -4
JAMESTOWN      CLOUDY     5  -6  61 N9        30.16S WCI  -9
WELLSVILLE     LGT SNOW   9   3  77 NW8       30.10R WCI  -3
ROCHESTER      CLOUDY    12   2  64 NW13      30.24F WCI  -3
PENN YAN       CLOUDY    13   1  59 NW9G21    30.19S WCI   1
$$

             KEY
       WCI = WIND CHILL INDEX
       VSB = VISIBILITY
       HX  = HEAT INDEX
$$


USA.gov is the U.S. government's official web portal to all federal, state and local government web resources and services.